Regional Weather Roundup
Issued by NWS

Home | Current Version | Previous Version | Graphics & Text | Print | Product List | Glossary Off
Versions: 1 2 3 4 5 6 7 8 9 10 11 12 13 14 15 16 17 18 19 20 21 22 23 24 25 26 27 28 29 30 31 32 33 34 35 36 37 38 39 40 41 42 43 44 45 46 47 48 49 50

000
ASUS43 KDMX 250907
RWRIA

WEATHER ROUNDUP FOR IOWA
NATIONAL WEATHER SERVICE DES MOINES IA
400 AM CDT SAT APR 25 2015

NOTE: "FAIR" INDICATES FEW OR NO CLOUDS BELOW 12,000 FEET WITH NO
SIGNIFICANT WEATHER AND/OR OBSTRUCTIONS TO VISIBILITY.

* - THESE STATIONS ARE NOT NWS STATIONS...THUS NOT UNDER NWS
QUALITY CONTROL.  THEY ALSO DO NOT REPORT WEATHER SUCH
AS PRECIPITATION OR FOG.

IAZ001>003-012>014-020>022-031>034-043>046-251000-
   NORTHWEST IOWA

CITY           SKY/WX    TMP DP  RH WIND       PRES   REMARKS
CARROLL *      CLOUDY    46  46 100 E15       29.55F
CHEROKEE *     CLOUDY    46  45  93 E13       29.60R
DENISON *      CLOUDY    46  46 100 E12       29.52S FOG
LE MARS *      CLOUDY    48  46  93 NE12G18   29.59S
ORANGE CITY *  CLOUDY    45  39  81 E13G21    29.60R
SHELDON *      CLOUDY    46  45  93 E17G24    29.62S
SIOUX CITY     CLOUDY    51  46  83 NE17      29.54F
SPENCER        CLOUDY    45  41  86 E18       29.64S
STORM LAKE *   CLOUDY    45  45 100 E16       29.59S FOG
$$

IAZ055>058-069>071-079>083-090>094-251000-
   SOUTHWEST IOWA

CITY           SKY/WX    TMP DP  RH WIND       PRES   REMARKS
ATLANTIC *     RAIN      50  50 100 E15       29.50F
AUDUBON *      CLOUDY    46  45  93 E10       29.55R FOG
CLARINDA *     CLOUDY    55  54  94 E10G17    29.45F
COUNCIL BLFS * LGT RAIN  52  52 100 NE16G22   29.46F
CRESTON *      CLOUDY    52  52 100 E15       29.49F
HARLAN  *      LGT RAIN  48  48 100 NE12      29.55R
LAMONI         CLOUDY    56  50  80 E7        29.50F
RED OAK *      LGT RAIN  55  55 100 NE13      29.44F
SHENANDOAH *   LGT RAIN  55  55 100 NE16      29.42F
$$

IAZ047>049-059>061-072>074-084-251000-
   CENTRAL IOWA

CITY           SKY/WX    TMP DP  RH WIND       PRES   REMARKS
AMES           CLOUDY    47  42  83 E14       29.58F
ANKENY *       CLOUDY    48  43  81 E10G18    29.57S
CHARITON *     RAIN      52  52 100 E14G21    29.52F
DES MOINES     CLOUDY    50  43  77 E15G23    29.56S THUNDER
GRINNELL*      CLOUDY    45  41  87 E17       29.61S
KNOXVILLE *    LGT RAIN  48  45  87 E5        29.56R
MARSHALLTOWN   CLOUDY    44  40  85 E23       29.61F
PELLA *        RAIN      48  45  87 E13G18    29.61R
PERRY *        CLOUDY    48  43  81 E17G24    29.55F
$$

IAZ004>006-015-016-023>025-035-036-251000-
   NORTH CENTRAL IOWA

CITY           SKY/WX    TMP DP  RH WIND       PRES   REMARKS
ALGONA *       CLOUDY    45  43  93 E14G22    29.66S
CLARION *      CLOUDY    45  43  93 E23G29    29.63F
ESTHERVILLE    CLOUDY    43  40  89 E15       29.66F
FORT DODGE *   CLOUDY    45  39  81 E17G24    29.61F
MASON CITY     CLOUDY    42  39  89 E14       29.70F
FOREST CITY *  CLOUDY    41  37  87 E15G22    29.68F
IOWA FALLS *   CLOUDY    43  39  87 E21       29.65F
$$

IAZ007>011-017>019-026>030-037>042-050>054-066-251000-
   NORTHEAST IOWA

CITY           SKY/WX    TMP DP  RH WIND       PRES   REMARKS
CEDAR RAPIDS   CLOUDY    42  41  96 E20G26    29.66F FOG
CHARLES CITY * CLOUDY    41  39  93 E21       29.72F
CLINTON *      MOCLDY    43  37  81 E16G23    29.76S
DECORAH *      CLOUDY    39  36  87 E18       29.75F WCI  30
DUBUQUE        CLOUDY    41  35  79 E17G24    29.75F
MONTICELLO *   CLOUDY    43  41  93 E15G23    29.72S
OELWEIN *      CLOUDY    43  39  87 E16       29.72F
WATERLOO       CLOUDY    43  38  82 E17G23    29.69F
$$

IAZ064-065-067-068-078-251000-
   EAST CENTRAL IOWA

CITY           SKY/WX    TMP DP  RH WIND       PRES   REMARKS
DAVENPORT      LGT RAIN  41  38  89 E17       29.72F FOG
IOWA CITY      LGT RAIN  43  41  93 E14       29.68F FOG
MT. PLEASANT * CLOUDY    48  45  87 NE13      29.62F
MUSCATINE *    LGT RAIN  45  43  93 E15G21    29.67F
QUAD CITIES    LGT RAIN  43  40  89 E15       29.72S FOG
$$

IAZ062-063-075>077-085>089-095>099-251000-
   SOUTHEAST IOWA

CITY           SKY/WX    TMP DP  RH WIND       PRES   REMARKS
BURLINGTON     CLOUDY    52  47  83 E9        29.63F
FAIRFIELD *    CLOUDY    50  43  76 E17       29.60F
FORT MADISON * CLOUDY    52  48  87 E8        29.63S
KEOKUK *       CLOUDY    54  48  82 SE10      29.60S
OSKALOOSA *    RAIN      46  43  87 E17       29.59S
CENTERVILLE *  CLOUDY    52  52 100 E9        29.55F
OTTUMWA        RAIN      48  45  89 E14       29.57F FOG
WASHINGTON *   CLOUDY    45  45 100 E21       29.63S FOG
$$

ABBREVIATIONS USED IN REMARKS
   TC - TEMPERATURES IN CELSIUS
  WCI - WIND CHILL INDEX
   HX - HEAT INDEX
  VSB - VISIBILITY
$$



USA.gov is the U.S. government's official web portal to all federal, state and local government web resources and services.